Temperature
7 8 8 7 7 7 7 7 7 7 7 7 7 7 7 7 6 6 6 6 6 6 5 5 5 5 5 5 5 4 4 4 4 4 4 3 3 3 3 3 3 3 3
7 7 7 7 7 7 7 7 7 6 6 6 6 6 6 6 6 6 6 6 6 5 5 5 5 5 5 4 4 4 4 4 3 3 3 3 3 3 3 2 2 2 2
7 7 6 6 6 6 6 6 6 6 6 6 6 6 6 6 6 6 5 5 5 5 5 5 5 4 4 4 4 4 3 3 3 3 3 2 2 2 2 2 2 1 1
6 6 6 6 6 6 6 6 6 6 6 6 6 6 6 5 5 5 5 5 5 5 4 4 4 4 4 4 3 3 3 3 2 2 2 2 2 2 1 1 1 1 1
6 6 6 6 5 5 5 5 5 5 5 5 5 5 5 5 5 5 5 4 4 4 4 4 4 3 3 3 3 3 2 2 2 2 2 2 1 1 1 0 -0 -0 -0
5 5 5 5 5 5 5 5 5 5 5 5 5 5 5 5 4 4 4 4 4 4 3 3 3 3 3 3 2 2 2 2 1 1 1 1 1 0 -0 -1 -1 -1 -1
5 5 5 5 4 4 4 4 4 4 4 4 4 4 4 4 4 4 4 3 3 3 3 3 3 3 2 2 2 2 1 1 1 1 0 0 0 -0 -1 -1 -1 -2 -2
4 4 4 4 4 4 4 4 4 4 4 4 4 4 4 3 3 3 3 3 3 3 3 2 2 2 2 2 1 1 1 1 1 0 -0 -0 -1 -1 -1 -2 -2 -2 -2
4 4 4 4 4 4 4 3 3 3 3 3 3 3 3 3 3 3 2 2 2 2 2 2 2 2 1 1 1 1 1 1 0 -0 -1 -1 -1 -2 -2 -2 -3 -3 -3
4 4 4 3 3 3 3 3 3 3 3 3 2 2 2 2 2 2 2 2 2 1 1 1 1 1 1 1 0 0 0 0 -0 -1 -1 -1 -1 -2 -2 -3 -3 -4 -4
3 3 3 3 3 3 3 3 2 2 2 2 2 2 2 2 2 1 1 1 1 1 1 1 1 0 0 -0 -0 -0 -1 -1 -1 -2 -2 -2 -2 -2 -3 -3 -3 -4 -4
3 3 3 2 2 2 2 2 2 2 1 1 1 1 1 1 1 1 1 1 0 0 0 0 0 -0 -0 -1 -1 -1 -1 -2 -2 -2 -3 -3 -3 -3 -3 -3 -4 -4 -4
2 2 2 2 1 1 1 1 1 1 1 1 0 0 0 0 0 0 0 -0 -0 -0 -0 -0 -1 -1 -1 -1 -1 -2 -2 -2 -3 -3 -3 -3 -3 -4 -4 -4 -4 -4 -5
1 1 1 1 1 1 1 1 1 0 0 0 0 0 -0 -0 -0 -0 -0 -0 -1 -1 -1 -1 -1 -1 -2 -2 -2 -2 -3 -3 -3 -4 -4 -4 -4 -4 -4 -4 -5 -5 -5
1 1 1 0 0 0 0 0 -0 -0 -0 -0 -0 -0 -1 -1 -1 -1 -1 -1 -1 -1 -1 -2 -2 -2 -2 -2 -3 -3 -3 -4 -4 -4 -4 -5 -5 -5 -5 -5 -6 -6 -6
0 0 -0 -0 -0 -0 -1 -1 -1 -1 -1 -1 -1 -1 -1 -1 -1 -1 -1 -1 -2 -2 -2 -2 -2 -2 -3 -3 -3 -4 -4 -4 -5 -5 -5 -5 -5 -6 -6 -6 -6 -6 -6
-0 -0 -1 -1 -1 -1 -1 -1 -1 -1 -1 -1 -1 -1 -2 -2 -2 -2 -2 -2 -2 -2 -3 -3 -3 -3 -3 -4 -4 -4 -4 -5 -5 -5 -6 -6 -6 -6 -6 -6 -7 -7 -7
-1 -1 -1 -1 -2 -2 -2 -2 -2 -2 -2 -2 -2 -2 -2 -2 -2 -2 -3 -3 -3 -3 -3 -3 -4 -4 -4 -5 -5 -5 -5 -5 -6 -6 -6 -6 -7 -7 -7 -7 -7 -7 -7
-2 -2 -2 -2 -2 -2 -2 -2 -2 -3 -2 -2 -2 -2 -3 -3 -3 -3 -3 -3 -3 -4 -4 -4 -4 -5 -5 -5 -5 -6 -6 -6 -6 -6 -7 -7 -7 -7 -7 -7 -7 -7 -8
-2 -2 -2 -2 -3 -3 -3 -3 -3 -3 -3 -3 -3 -3 -3 -4 -4 -4 -4 -4 -4 -4 -5 -5 -5 -5 -6 -6 -6 -6 -6 -6 -7 -7 -7 -7 -7 -7 -7 -8 -8 -8 -8
-3 -3 -3 -3 -3 -3 -3 -3 -4 -4 -4 -4 -4 -4 -4 -4 -4 -4 -4 -5 -5 -5 -5 -5 -6 -6 -6 -6 -6 -6 -7 -7 -7 -7 -7 -7 -8 -8 -8 -8 -8 -8 -8
-4 -4 -4 -4 -4 -4 -4 -4 -4 -4 -4 -4 -4 -4 -5 -5 -5 -5 -5 -5 -5 -6 -6 -6 -6 -6 -6 -7 -7 -7 -7 -7 -7 -7 -8 -8 -8 -8 -8 -8 -8 -8 -8
-4 -4 -4 -4 -4 -4 -5 -5 -5 -5 -5 -5 -5 -5 -5 -5 -5 -6 -6 -6 -6 -6 -6 -6 -7 -7 -7 -7 -7 -7 -8 -7 -8 -8 -8 -8 -8 -8 -8 -8 -8 -8 -9
-5 -5 -5 -5 -5 -5 -5 -5 -5 -5 -5 -6 -6 -6 -6 -6 -6 -6 -6 -6 -6 -6 -7 -7 -7 -7 -7 -7 -7 -7 -8 -8 -8 -8 -8 -8 -8 -8 -8 -9 -9 -9 -9
-5 -6 -6 -6 -6 -6 -6 -6 -6 -6 -6 -6 -6 -6 -6 -7 -7 -7 -7 -7 -7 -7 -7 -7 -7 -7 -7 -8 -8 -8 -8 -8 -8 -8 -8 -8 -8 -9 -9 -9 -9 -9 -9
-6 -6 -6 -6 -6 -6 -7 -7 -7 -7 -7 -7 -7 -7 -7 -7 -7 -7 -7 -7 -7 -7 -7 -8 -8 -8 -8 -8 -8 -8 -8 -8 -8 -8 -8 -9 -9 -9 -9 -9 -9 -9 -9
Wind_Speed
3 3 2 3 3 4 4 4 5 5 6 6 6 6 6 6 6 6 5 6 6 5 4 5 4 3 3 3 2 2 2 3 4 3 2 1 2 2 4 5 7 8 9
3 3 3 3 3 4 4 5 5 5 6 6 6 6 6 6 6 7 6 6 6 6 5 5 5 4 4 3 3 3 3 3 4 4 2 2 3 3 3 4 7 8 9
3 3 3 3 3 3 4 4 5 5 5 5 6 6 6 6 6 6 6 6 6 6 6 6 6 5 5 3 4 4 3 3 3 3 4 3 2 2 3 4 5 6 8
2 2 3 3 3 3 3 3 4 4 5 5 6 6 6 6 6 6 6 6 6 5 5 6 6 6 6 5 4 4 3 3 3 3 4 3 3 3 2 3 4 3 4
1 2 2 2 2 2 2 2 3 4 5 5 5 5 5 5 6 6 6 6 6 5 5 5 5 6 7 6 5 4 4 4 3 4 4 4 4 3 3 3 4 4 4
1 1 1 2 2 3 3 3 3 3 4 4 5 5 5 5 7 9 7 5 5 5 5 5 5 5 6 7 8 7 7 6 5 5 5 6 6 5 4 3 3 4 5
1 1 1 2 2 2 3 3 3 3 3 4 4 5 5 6 8 9 8 5 5 5 5 5 4 5 6 5 6 7 7 9 9 7 7 7 6 5 4 4 4 5 7
1 1 1 1 2 2 2 2 2 2 3 3 4 5 4 5 8 9 8 5 4 5 5 6 6 5 6 6 6 5 6 6 7 6 6 7 6 5 5 5 6 6 6
0 0 0 1 1 2 2 2 2 2 2 2 3 4 4 5 8 8 8 4 4 5 5 6 6 6 8 9 6 6 6 6 8 10 10 9 10 10 8 4 4 5 7
1 1 1 0 1 2 2 2 1 2 2 2 2 3 4 4 6 8 8 4 4 4 4 5 8 9 9 10 7 6 7 6 5 5 6 8 8 9 9 6 5 5 6
1 1 0 1 1 1 1 1 2 2 2 1 2 2 3 4 6 8 8 5 5 5 4 4 5 9 10 10 9 7 9 7 5 5 5 5 4 4 5 6 5 5 6
0 0 0 0 0 1 1 1 1 2 2 2 2 2 2 3 5 7 9 9 7 5 5 4 5 7 8 9 8 8 10 7 3 3 4 5 5 5 4 5 7 8 8
1 0 0 0 0 1 1 2 1 1 2 2 2 2 2 2 3 6 8 9 8 6 5 6 7 8 8 7 8 9 7 4 3 4 5 5 4 4 3 3 5 6 8
1 1 0 0 0 0 1 1 2 2 2 2 3 3 3 2 3 3 3 4 6 5 4 5 7 7 6 7 7 6 4 4 4 5 5 4 3 3 3 4 5 5 5
1 1 0 0 1 1 1 1 2 3 3 4 3 3 3 4 5 6 4 4 4 4 3 2 2 3 3 4 3 4 3 3 4 4 4 4 4 4 4 4 4 5 6
1 1 1 1 1 0 1 2 2 3 3 4 4 4 4 5 6 6 6 7 7 7 4 3 4 4 5 5 4 4 4 4 4 4 4 5 5 5 5 5 5 5 7
2 2 1 1 1 1 1 1 2 3 2 3 3 4 4 5 6 6 6 7 7 7 4 4 5 5 4 4 4 4 4 4 4 4 5 5 5 5 5 6 5 6 7
2 2 1 1 1 1 1 1 2 2 2 3 3 4 5 6 6 6 5 4 3 4 3 4 4 4 4 4 4 4 4 4 4 4 5 5 5 5 6 6 6 6 7
2 2 1 1 1 1 1 1 1 2 2 2 3 3 4 4 4 5 4 2 3 3 3 4 4 4 4 4 4 4 4 4 4 4 5 5 5 5 6 6 6 9 8
2 3 2 1 1 1 1 1 2 2 2 2 3 3 2 2 2 2 2 2 3 4 4 4 4 4 3 4 4 4 4 4 5 5 5 5 5 5 6 7 6 7 6
2 3 3 2 1 1 2 2 2 2 2 3 3 3 4 2 2 3 3 3 3 4 4 3 3 3 4 4 4 5 5 5 5 5 5 5 5 5 5 6 6 6 6
2 2 2 2 2 2 2 2 2 2 2 3 3 3 6 3 3 3 3 3 3 3 3 3 3 3 4 4 4 4 5 5 5 5 5 5 5 5 5 5 6 6 6
2 2 3 2 2 3 3 2 2 2 3 3 3 3 3 3 3 3 3 3 3 3 3 3 3 4 4 4 4 4 5 5 5 5 5 5 5 5 5 6 6 7 6
3 3 3 3 3 3 3 3 3 3 3 4 4 4 3 3 3 4 3 3 3 3 3 3 3 5 5 5 5 6 7 7 7 6 6 6 6 6 5 6 6 7 6
3 3 3 3 3 3 3 4 4 4 4 4 4 4 4 4 4 4 3 3 4 4 4 4 4 5 6 7 7 8 9 11 10 8 7 6 6 6 6 6 6 5 5
4 4 4 3 3 3 4 4 4 4 4 4 4 4 4 4 4 4 4 4 4 4 4 4 5 6 7 8 8 10 10 11 11 10 7 5 5 5 5 5 6 5 5
Wind_Direction
165 162 161 165 168 163 166 176 169 161 161 164 167 169 172 171 168 168 171 167 169 171 173 174 180 171 170 173 170 180 190 181 222 265 261 235 224 242 269 269 276 273 274
167 165 169 172 172 172 176 175 169 166 166 167 167 170 174 174 173 174 177 175 177 179 179 177 187 183 185 186 183 195 204 202 208 242 260 248 247 238 248 262 273 271 271
152 160 163 171 178 185 182 176 171 168 169 170 169 175 179 180 179 180 179 180 181 183 181 184 190 184 197 196 194 202 210 215 210 223 250 252 256 248 259 270 267 268 274
144 159 172 180 184 186 183 175 173 170 173 178 178 179 181 182 181 180 179 180 181 183 184 188 192 193 199 198 203 206 205 211 213 225 244 254 253 254 246 265 281 269 271
167 177 189 179 173 172 174 177 172 175 181 180 177 177 177 180 185 180 181 182 182 187 190 192 195 195 196 199 208 205 201 208 220 227 242 256 257 253 249 252 270 285 283
187 196 185 172 174 174 177 175 174 180 178 174 178 179 182 192 188 185 185 184 185 191 196 198 200 200 205 216 222 221 216 214 218 226 238 243 250 248 253 256 268 290 291
190 186 188 178 176 173 170 174 182 185 181 183 187 185 190 192 189 192 194 188 192 198 200 200 211 213 214 212 228 237 239 242 237 231 235 241 244 241 244 256 256 261 269
178 172 187 184 182 174 171 187 194 189 187 193 195 192 189 195 194 197 199 200 202 207 207 206 210 216 211 210 214 225 233 242 245 240 236 243 247 239 230 246 256 270 277
350 304 311 174 177 185 197 200 200 185 192 200 193 187 188 198 198 199 199 196 209 220 218 212 213 216 224 222 217 225 238 246 256 255 257 262 270 271 271 266 264 273 284
277 270 262 209 204 206 203 200 203 185 194 193 201 195 192 202 208 206 203 200 211 222 224 222 223 225 230 226 218 219 235 244 245 255 261 268 270 268 267 251 240 258 277
313 308 259 216 213 196 183 184 178 174 173 194 218 224 209 207 213 213 211 209 212 218 224 225 226 233 235 233 230 226 240 250 243 240 250 255 255 249 249 252 242 241 261
358 341 319 294 195 157 165 178 176 173 177 203 232 247 238 221 215 220 222 227 223 218 228 228 228 237 243 245 242 247 255 259 245 240 251 255 253 251 251 252 256 258 257
18 325 318 70 75 155 170 181 186 189 193 211 219 238 250 244 234 233 234 237 238 229 231 236 242 243 247 249 250 254 254 244 233 246 252 255 251 251 252 269 278 277 274
322 309 346 140 212 185 185 194 196 206 208 216 225 234 246 246 235 226 225 235 240 244 245 246 245 243 243 246 250 247 236 230 235 246 257 259 257 255 259 265 274 278 281
315 290 276 247 237 242 244 239 230 232 222 222 227 226 230 247 241 229 222 220 217 227 227 224 226 230 229 237 240 238 231 235 247 248 260 267 268 267 270 267 269 274 274
309 289 276 259 250 249 282 314 301 262 262 256 248 245 251 250 256 251 247 249 247 247 241 227 232 232 236 237 239 241 237 237 241 246 254 257 262 265 271 272 268 268 272
303 290 287 270 242 238 242 251 306 327 315 293 277 276 272 276 271 264 261 261 257 248 242 233 235 236 239 239 240 242 246 247 246 248 252 252 256 261 265 268 269 272 274
324 309 297 274 256 251 251 252 253 265 298 312 300 279 275 275 275 266 259 264 260 246 233 235 240 240 242 243 245 250 254 255 253 252 252 252 252 258 263 264 265 269 274
325 317 315 308 285 256 256 263 265 264 270 287 308 306 286 280 277 271 261 234 239 249 246 244 243 241 243 244 247 249 251 253 253 254 256 255 255 258 262 263 265 272 275
327 324 332 329 316 298 270 259 260 261 265 270 277 285 297 306 292 284 262 238 240 249 251 251 248 244 244 246 249 253 256 254 252 254 259 259 258 257 262 264 264 267 269
328 332 336 340 318 298 284 271 263 260 263 270 275 277 283 275 263 269 269 256 249 254 256 256 255 252 250 249 249 250 252 256 255 255 258 259 256 260 262 263 265 267 269
339 333 328 320 316 311 305 295 284 278 278 280 288 289 288 287 276 274 269 264 254 251 250 251 255 253 248 248 248 250 253 258 259 256 257 257 257 259 261 262 264 267 267
329 326 325 322 317 309 310 305 297 291 289 286 285 286 288 279 275 277 276 274 270 265 256 251 259 263 258 256 249 245 251 255 255 255 257 259 259 258 259 260 261 264 262
326 321 315 311 310 305 300 299 299 295 291 290 290 288 287 283 282 283 283 280 276 268 263 262 262 265 267 270 269 262 259 262 261 258 254 255 259 260 259 260 260 257 257
323 316 310 306 304 301 301 302 301 299 298 297 294 294 293 292 291 288 282 279 275 274 270 268 267 267 267 268 269 268 269 272 271 263 253 250 253 255 257 258 259 256 256
315 311 308 306 302 300 298 297 297 298 296 296 294 291 290 289 289 286 284 282 279 278 276 274 269 271 273 274 272 271 274 275 273 272 261 248 248 253 254 256 256 252 254
Height
1466 1467 1468 1469 1471 1473 1474 1475 1477 1479 1481 1482 1484 1486 1488 1490 1492 1493 1495 1496 1498 1499 1501 1502 1503 1504 1506 1507 1508 1508 1509 1510 1509 1509 1510 1510 1510 1510 1509 1509 1508 1507 1506
1464 1465 1466 1467 1469 1470 1471 1472 1474 1476 1478 1479 1481 1483 1485 1486 1488 1490 1491 1493 1494 1495 1497 1499 1500 1501 1502 1503 1503 1504 1505 1505 1505 1505 1505 1506 1505 1505 1504 1503 1503 1502 1501
1462 1463 1464 1465 1466 1467 1468 1469 1471 1472 1474 1476 1478 1479 1481 1483 1485 1486 1487 1489 1490 1491 1493 1495 1496 1497 1498 1499 1499 1500 1500 1501 1501 1501 1500 1501 1500 1500 1499 1498 1498 1496 1496
1460 1460 1461 1462 1463 1464 1465 1466 1468 1469 1471 1472 1474 1476 1478 1479 1481 1482 1483 1484 1486 1487 1489 1491 1492 1493 1494 1495 1495 1495 1496 1496 1496 1496 1496 1495 1495 1495 1494 1493 1491 1490 1490
1458 1458 1459 1460 1460 1461 1462 1463 1465 1466 1467 1469 1471 1472 1474 1475 1477 1478 1480 1480 1482 1483 1485 1486 1487 1488 1489 1490 1490 1491 1491 1491 1491 1491 1491 1490 1489 1489 1489 1487 1486 1484 1483
1456 1456 1457 1457 1458 1458 1459 1460 1462 1463 1464 1466 1467 1468 1470 1471 1473 1474 1476 1476 1477 1479 1480 1481 1483 1484 1485 1485 1486 1486 1487 1487 1486 1486 1485 1484 1484 1484 1483 1482 1481 1479 1476
1453 1454 1454 1455 1455 1456 1457 1458 1459 1460 1461 1462 1463 1464 1466 1467 1469 1470 1471 1472 1473 1474 1476 1477 1478 1479 1480 1480 1481 1481 1481 1482 1482 1482 1480 1479 1479 1479 1478 1476 1475 1473 1471
1451 1451 1452 1452 1453 1454 1454 1455 1456 1457 1457 1458 1459 1460 1462 1463 1465 1466 1467 1468 1469 1470 1471 1472 1473 1474 1474 1475 1475 1475 1476 1476 1476 1476 1475 1475 1474 1474 1473 1472 1470 1468 1465
1448 1449 1449 1450 1450 1451 1451 1452 1452 1453 1454 1454 1455 1456 1457 1459 1460 1462 1463 1463 1464 1465 1466 1467 1468 1468 1469 1470 1470 1470 1470 1470 1470 1470 1470 1469 1468 1468 1467 1466 1464 1462 1459
1446 1446 1447 1447 1447 1447 1448 1449 1449 1450 1450 1451 1451 1452 1453 1454 1456 1457 1458 1458 1459 1460 1461 1461 1462 1463 1464 1464 1464 1464 1463 1463 1464 1463 1463 1463 1462 1461 1461 1460 1458 1456 1453
1444 1444 1444 1444 1444 1444 1445 1445 1446 1446 1446 1447 1448 1448 1449 1450 1451 1452 1453 1454 1454 1454 1455 1456 1457 1458 1458 1459 1459 1458 1458 1458 1457 1457 1457 1456 1455 1455 1454 1453 1452 1451 1448
1442 1442 1442 1442 1442 1442 1442 1442 1442 1442 1443 1443 1444 1444 1445 1446 1447 1448 1448 1449 1449 1450 1450 1451 1452 1452 1453 1453 1453 1453 1453 1452 1451 1451 1450 1449 1449 1448 1447 1446 1445 1444 1442
1439 1439 1439 1439 1439 1439 1439 1438 1438 1439 1439 1439 1440 1440 1441 1442 1442 1443 1444 1444 1445 1445 1445 1446 1446 1447 1447 1447 1447 1447 1447 1446 1445 1444 1443 1443 1443 1442 1441 1439 1438 1437 1435
1437 1436 1436 1436 1436 1436 1436 1435 1435 1435 1436 1436 1436 1436 1437 1437 1438 1438 1439 1439 1440 1440 1440 1440 1441 1441 1441 1441 1441 1441 1441 1440 1440 1439 1438 1437 1437 1436 1435 1433 1432 1430 1428
1434 1434 1433 1433 1433 1432 1432 1433 1432 1433 1433 1433 1433 1433 1433 1433 1433 1434 1434 1434 1434 1434 1434 1434 1435 1435 1435 1435 1435 1435 1435 1435 1434 1434 1433 1431 1431 1430 1429 1428 1426 1425 1423
1431 1431 1430 1430 1430 1429 1429 1429 1429 1430 1430 1430 1429 1430 1429 1429 1429 1429 1429 1429 1429 1429 1429 1428 1429 1429 1429 1429 1429 1429 1429 1429 1428 1428 1427 1426 1425 1424 1423 1422 1421 1419 1417
1429 1428 1428 1427 1427 1426 1426 1426 1425 1426 1426 1426 1426 1426 1425 1425 1424 1424 1424 1424 1424 1424 1424 1423 1423 1423 1423 1423 1423 1423 1423 1423 1423 1422 1421 1420 1419 1418 1417 1416 1414 1413 1411
1426 1425 1425 1424 1424 1423 1423 1423 1422 1422 1422 1421 1422 1421 1421 1420 1420 1419 1419 1419 1418 1418 1418 1418 1418 1418 1418 1418 1418 1418 1417 1417 1417 1416 1415 1414 1414 1413 1412 1410 1409 1407 1406
1424 1423 1422 1421 1421 1421 1420 1420 1419 1419 1418 1418 1417 1417 1417 1416 1416 1415 1415 1414 1414 1414 1413 1413 1413 1413 1413 1413 1413 1412 1412 1411 1411 1410 1409 1408 1408 1407 1406 1405 1403 1402 1400
1422 1421 1420 1419 1418 1417 1417 1416 1416 1416 1415 1415 1414 1414 1413 1412 1411 1411 1411 1410 1410 1409 1409 1409 1408 1408 1408 1408 1407 1407 1406 1406 1405 1404 1403 1403 1402 1401 1400 1399 1398 1396 1395
1419 1418 1418 1417 1416 1415 1414 1414 1413 1413 1412 1411 1411 1410 1410 1409 1408 1407 1406 1406 1405 1405 1404 1404 1404 1403 1403 1403 1402 1401 1401 1400 1399 1399 1398 1397 1396 1395 1394 1393 1392 1391 1389
1417 1416 1415 1415 1413 1412 1411 1411 1410 1409 1409 1408 1407 1407 1406 1405 1404 1403 1402 1401 1401 1400 1400 1399 1399 1398 1398 1398 1397 1396 1395 1395 1394 1393 1392 1391 1390 1390 1389 1388 1387 1386 1384
1415 1414 1413 1412 1411 1410 1409 1408 1407 1406 1405 1404 1404 1403 1402 1401 1400 1399 1398 1397 1396 1396 1395 1395 1394 1393 1393 1392 1391 1391 1390 1389 1389 1388 1387 1386 1385 1384 1383 1382 1381 1381 1380
1412 1411 1410 1409 1408 1407 1406 1405 1404 1403 1402 1401 1400 1399 1398 1397 1396 1395 1394 1393 1392 1391 1390 1390 1389 1388 1388 1387 1386 1385 1384 1384 1383 1382 1382 1381 1380 1379 1378 1377 1377 1376 1375
1409 1408 1407 1406 1405 1404 1403 1401 1400 1399 1398 1397 1396 1395 1394 1393 1392 1390 1389 1388 1387 1386 1386 1385 1384 1383 1382 1381 1380 1380 1379 1378 1378 1377 1376 1375 1375 1374 1373 1373 1372 1372 1371
1406 1405 1404 1402 1401 1400 1399 1398 1397 1396 1395 1393 1392 1391 1390 1388 1387 1386 1385 1384 1383 1382 1381 1380 1379 1378 1377 1376 1375 1374 1374 1373 1373 1372 1371 1371 1370 1369 1369 1368 1368 1367 1367